{"data":{"norad_id":62975,"epoch":"2026-05-24T23:42:52.182144Z","epoch_age_seconds":76355,"freshness":"FRESH","line1":"1 62975U 25030E   26144.98810396 -.00000094  00000+0  65697-4 0  9990","line2":"2 62975  50.0037 318.9568 0001169  96.7605 263.3400 13.29326607 62775","mean_motion":13.29326607,"eccentricity":0.0001169,"inclination_deg":50.0037,"raan_deg":318.9568,"arg_perigee_deg":96.7605,"mean_anomaly_deg":263.34,"bstar":6.5697e-5,"rev_number":6277,"period_min":108.32552304432,"perigee_km":1148.4243225029,"apogee_km":1150.1842382742,"semimajor_km":7527.4412803885,"source":"CELESTRAK","updated_at":"2026-05-25T13:38:03.396287Z"}}